Location: Bastogne Gables
(35.1554°N, 78.9900°W)
Time: 20:13:28
(UTC+00:00)

AQUARIUS - Pass Details

Date: 29 October 2020
Orbit: 650 x 653 km, 98.0° (Epoch: 25 November)

Event Time Altitude Azimuth Distance (km) Brightness Sun altitude
Rises 22:58:51 0° 171° (S) 2,958 7.6 -7.8°
Reaches altitude 10° 23:01:03 10° 173° (S) 2,051 6.8 -8.2°
Maximum altitude 23:05:31 73° 258° (WSW) 685 4.5 -9.1°
Drops below altitude 10° 23:10:01 10° 344° (NNW) 2,064 6.8 -10.0°
Sets 23:12:15 0° 346° (NNW) 2,979 7.6 -10.5°
